Location: Unspecified
(40.7945°N, 111.1337°W)
Time: 16:05:25
(UTC-06:00)

Vanguard 1 - Pass Details

Date: 04 July 2019
Orbit: 653 x 3830 km, 34.2° (Epoch: 22 October)

Event Time Altitude Azimuth Distance (km) Brightness Sun altitude
Rises 08:13:46 0° 281° (W) 6,647 13.8 22.9°
Reaches altitude 10° 08:21:15 10° 263° (W) 4,881 13.1 24.3°
Maximum altitude 08:27:27 15° 234° (SW) 3,778 12.7 25.5°
Drops below altitude 10° 08:32:16 10° 203° (SSW) 3,589 12.7 26.4°
Sets 08:36:21 0° 179° (S) 4,065 13.2 27.1°
